SCP
-0 -0 -0 -0 -0 -0 -0 -0 -0 -0 -0 -0 -0 -0 -0 -0 -0 -0 -0 -0 -0 -0 -0 -0 -0 -0 -0 -0 -0 -0 -0 -0 -0 -0 -0 -0 -0 -0 -0 -0 -0 -0 -0
-0 -0 -0 -0 -0 -0 -0 -0 -0 -0 -0 -0 -0 -0 -0 -0 -0 -0 -0 -0 -0 -0 -0 -0 -0 -0 -0 0 0 0 0 -0 -0 -0 -0 -0 -0 -0 -0 -0 -0 -0 -0
-0 -0 -0 -0 -0 -0 -0 -0 -0 -0 -0 -0 -0 -0 -0 -0 -0 -0 -0 -0 -0 -0 -0 -0 -0 -0 -0 0 -0 -0 -0 -0 -0 0 0 0 0 -0 -0 -0 -0 -0 -0
-0 0 0 0 0 -0 -0 -0 -0 -0 -0 -0 -0 -0 -0 -0 -0 -0 -0 -0 -0 -0 -0 -0 -0 -0 -0 -0 -0 -0 -0 -0 -0 0 0 0 0 0 0 0 0 0 0
0 0 0 0 0 -0 -0 -0 -0 -0 -0 -0 -0 -0 0 0 0 0 -0 -0 -0 -0 0 0 0 0 0 0 -0 -0 -0 -0 -0 -0 0 0 0 0 0 0 0 0 0
0 0 0 0 0 0 -0 -0 -0 -0 -0 -0 -0 0 0 0 0 0 0 0 0 0 0 0 0 0 0 0 -0 -0 -0 -0 -0 -0 0 0 0 0 0 0 0 0 0
-0 0 0 -0 -0 -0 -0 -0 -0 0 0 0 0 0 0 0 0 0 0 0 0 0 0 0 0 0 0 0 -0 -0 -0 -0 -0 0 0 0 0 0 0 0 0 0 0
-1 -0 0 0 -0 0 0 -0 -0 0 0 0 -0 0 0 0 0 0 0 0 0 0 0 0 0 0 0 0 0 -0 -0 -0 0 0 0 0 0 0 0 0 0 0 0
-0 -0 0 0 0 0 0 0 0 0 0 0 0 0 0 0 0 0 0 0 0 0 0 0 0 0 0 0 0 0 -0 -0 -0 0 0 0 0 0 0 0 0 0 0
-0 -0 0 0 0 0 0 0 0 0 0 0 0 0 0 0 0 0 0 0 0 0 0 0 0 0 0 0 0 0 -0 -0 -0 0 0 0 0 0 0 0 0 0 0
0 0 0 0 0 0 0 0 0 0 0 0 0 0 0 0 0 0 0 0 0 0 0 0 0 0 0 0 0 0 0 -0 0 0 0 0 0 0 0 0 0 0 0
0 -0 0 0 0 0 0 0 0 0 0 0 0 0 -0 -0 0 0 0 0 0 0 0 0 0 0 0 0 0 0 0 -0 0 0 0 -0 0 0 0 0 0 0 0
0 0 0 0 0 0 0 0 0 0 0 0 0 0 -0 -0 0 0 0 0 0 0 0 0 0 0 0 0 0 1 0 -0 0 0 0 -0 0 0 0 0 0 0 0
0 0 0 0 0 -0 1 0 0 0 0 0 0 0 0 -0 0 0 0 0 0 0 0 0 0 0 0 0 0 0 0 0 0 0 0 0 0 0 0 0 0 0 0
0 0 0 0 1 0 2 1 0 -0 0 0 0 0 0 0 1 1 0 0 0 0 0 0 0 0 0 0 0 0 0 0 0 0 0 0 0 0 0 0 0 0 0
0 1 0 1 2 1 0 2 1 1 0 0 1 1 1 1 1 1 1 1 0 0 0 0 0 0 0 0 0 0 0 0 0 0 0 0 0 0 0 0 0 0 0
1 1 1 1 1 1 1 2 2 1 0 1 1 2 1 1 1 1 1 1 1 0 0 0 0 1 0 0 0 0 0 0 0 1 0 0 0 0 0 0 0 0 0
1 1 1 0 1 2 2 1 2 1 2 1 1 2 3 2 1 2 1 1 1 1 1 1 0 1 1 0 0 -0 0 0 0 0 0 0 0 0 0 0 0 0 0
3 3 3 2 1 2 1 2 1 1 1 2 2 2 3 3 2 1 1 1 2 1 1 1 1 1 1 0 0 1 0 0 0 0 0 0 0 0 0 0 0 0 0
3 4 3 3 3 3 2 2 2 1 1 1 1 2 4 3 2 2 1 1 2 2 1 1 0 1 1 1 0 0 0 0 0 0 -0 0 0 1 0 0 0 0 0
3 7 6 4 4 5 3 2 1 1 1 1 2 1 6 3 3 2 2 1 3 3 1 1 1 2 1 1 0 0 1 0 0 0 0 0 0 0 0 1 1 0 0
3 4 5 6 4 3 3 3 2 1 1 1 2 2 3 4 4 3 3 1 3 2 1 1 2 2 1 1 0 0 0 1 1 0 0 0 0 0 0 1 0 0 0
3 3 2 2 3 4 2 3 3 2 3 3 3 4 4 4 4 4 4 2 3 4 2 2 2 2 1 0 1 1 0 0 1 0 0 0 0 0 0 0 0 0 0
2 2 2 2 2 2 3 3 2 3 2 2 2 3 5 5 5 4 4 3 2 3 2 3 3 2 1 1 0 0 0 0 1 0 0 0 0 0 0 0 0 0 0
1 1 2 3 4 3 2 2 3 3 3 3 3 2 5 7 5 4 4 4 3 3 3 2 2 2 2 1 1 0 0 0 0 0 0 1 0 0 0 1 0 0 0
0 0 1 2 3 4 4 5 5 5 5 4 5 5 5 8 8 5 5 5 3 3 2 4 3 3 1 1 1 0 0 0 0 0 0 0 0 0 1 1 0 0 0
Wind_Speed_500mb
28 46 41 36 37 34 30 28 27 25 25 26 25 24 25 26 26 26 27 29 31 31 33 35 37 39 41 41 40 43 46 51 54 56 46 38 31 30 32 27 18 18 15
41 46 43 40 38 35 31 28 26 24 23 24 23 22 22 23 24 24 26 26 28 29 29 32 35 38 42 44 45 52 58 62 57 52 51 43 34 30 23 13 17 18 19
46 47 43 42 42 36 31 28 25 22 22 22 20 20 21 21 22 23 24 24 24 25 27 27 30 35 40 43 44 50 55 49 48 45 37 34 34 30 27 24 22 23 24
47 48 45 44 43 38 32 29 26 21 20 19 18 18 19 20 20 21 21 21 20 22 24 25 26 29 34 40 46 51 48 43 42 39 37 18 28 29 30 31 27 26 29
39 48 44 43 42 37 32 28 24 20 18 18 16 16 17 18 19 19 18 18 17 18 19 20 22 23 26 33 37 42 45 42 37 27 11 14 25 28 31 33 29 27 24
41 41 44 41 40 36 31 27 24 20 18 16 15 15 15 16 17 16 15 15 15 14 14 14 15 17 20 24 28 36 38 36 33 16 22 21 24 29 32 31 28 30 30
42 38 45 41 39 36 33 30 26 22 19 17 14 13 13 13 13 13 12 11 11 10 10 9 9 10 13 17 21 29 35 34 30 10 22 25 25 27 29 28 30 30 31
44 32 43 41 37 34 31 29 25 22 19 17 15 13 12 11 11 10 10 10 8 7 8 6 5 4 6 10 13 15 21 31 26 3 18 27 24 24 25 26 28 28 29
33 28 45 41 38 34 32 30 26 22 22 19 16 14 12 10 9 6 6 6 5 3 4 7 6 5 3 2 5 9 15 23 21 3 11 24 22 20 19 21 23 25 26
31 25 45 43 40 37 33 31 29 26 23 20 18 16 13 10 8 7 6 4 3 4 6 7 9 11 10 7 1 4 10 16 10 15 12 21 24 19 17 16 17 18 19
35 26 30 36 40 37 36 33 30 29 26 24 22 19 14 11 9 9 8 5 6 9 9 9 12 14 15 11 4 4 3 8 7 18 15 20 26 24 18 15 13 12 13
39 34 36 36 37 35 29 35 36 33 29 27 25 21 16 7 7 10 9 9 13 15 15 15 15 16 19 15 4 3 4 8 17 28 19 24 30 32 22 15 12 10 9
37 36 39 40 31 37 36 30 34 34 32 29 27 24 19 16 27 22 18 13 15 21 19 18 21 17 14 6 15 24 34 18 21 21 22 28 32 31 25 20 16 13 10
43 39 42 42 43 44 42 32 24 25 21 28 31 28 24 34 32 19 23 20 15 12 16 16 22 29 16 19 24 24 27 7 13 24 26 34 28 30 28 25 20 17 14
45 43 42 44 45 47 35 28 18 29 29 18 19 27 28 39 31 27 22 25 22 15 15 9 17 24 21 25 25 21 28 16 28 29 23 26 27 29 30 30 23 20 19
40 42 37 44 43 48 50 33 27 27 36 26 30 31 28 32 27 29 27 30 30 24 20 22 22 28 27 24 18 24 25 24 23 28 29 41 21 26 28 34 27 22 20
40 42 43 35 37 36 61 48 34 34 37 31 37 36 37 35 32 37 30 28 25 24 26 28 30 25 31 26 28 28 30 30 23 29 29 28 26 23 26 29 28 28 26
33 35 39 40 38 39 42 49 49 41 34 36 38 41 48 48 44 41 41 35 31 29 29 24 30 30 34 35 35 29 25 31 26 30 29 22 31 28 18 28 33 30 29
30 37 40 41 38 40 33 40 40 42 41 46 47 41 47 48 44 50 40 39 35 36 30 30 28 33 37 32 32 31 28 27 28 33 31 20 33 26 26 29 27 32 29
27 30 37 44 43 37 39 37 39 37 42 35 39 44 47 51 48 45 47 32 37 45 35 32 35 35 41 34 40 37 37 36 44 34 29 24 14 20 22 27 30 39 31
33 24 24 31 40 43 38 42 39 43 40 43 43 45 49 53 56 45 49 43 46 47 34 32 38 41 45 40 43 43 43 35 20 22 22 17 17 13 20 27 26 29 31
18 30 34 36 36 40 52 45 37 29 40 40 41 39 51 57 59 51 48 41 48 44 36 43 46 43 35 32 32 33 31 24 33 29 15 29 28 25 12 20 22 30 28
14 10 19 35 43 36 41 41 45 49 39 43 50 45 52 60 61 54 53 44 47 49 41 39 43 45 46 44 34 33 12 11 28 26 29 23 18 8 8 8 23 14 14
23 18 9 6 32 43 42 42 41 42 50 52 47 48 55 60 61 62 59 57 54 52 48 43 41 39 36 38 35 33 37 33 6 15 26 18 20 10 12 6 11 10 24
23 25 17 19 21 9 34 48 41 42 45 37 43 46 52 65 68 67 63 62 53 60 53 39 42 41 34 32 34 23 40 24 25 19 15 27 18 7 8 14 14 24 30
25 20 25 25 24 21 16 8 31 35 38 45 46 44 51 65 75 82 75 65 60 55 51 52 49 48 46 40 37 26 27 27 21 22 17 13 17 18 19 12 14 25 30
Wind_Direction_500mb
161 161 157 153 150 144 140 138 129 118 110 106 102 101 100 99 99 101 99 95 88 84 81 74 69 64 64 66 70 77 81 75 70 59 58 66 84 83 83 93 67 63 49
156 160 156 152 150 150 148 145 136 127 115 109 106 103 103 104 103 104 106 101 92 84 84 74 67 64 63 64 74 80 77 70 65 59 41 44 58 74 87 80 36 40 29
161 158 156 152 153 154 154 152 142 134 123 114 111 108 107 109 109 109 108 105 97 87 86 78 70 65 63 64 76 82 76 70 67 63 61 19 47 62 68 61 59 54 46
154 157 157 155 155 157 156 157 152 139 127 121 119 116 113 112 112 113 109 104 102 93 87 83 75 71 70 70 81 85 80 74 68 63 65 355 43 60 66 65 59 55 52
154 159 159 157 157 158 159 162 156 144 137 134 128 121 118 117 120 117 111 106 107 103 96 90 81 74 73 71 83 85 83 81 72 79 131 46 55 61 63 60 54 54 46
145 164 162 162 160 161 160 162 161 157 150 144 141 130 123 120 121 118 115 108 109 112 104 94 85 78 76 76 81 90 87 80 79 42 63 60 56 59 59 59 58 53 49
151 163 163 165 164 165 165 166 164 165 160 157 151 137 131 128 125 121 117 112 115 125 121 116 98 80 78 79 82 97 96 93 87 33 57 56 55 57 60 58 56 54 51
172 174 166 166 167 164 164 167 165 169 167 168 162 154 145 141 138 133 130 130 135 147 150 145 148 133 91 84 89 100 105 102 107 66 43 40 41 45 52 53 54 52 50
172 191 169 171 169 166 166 169 169 174 181 177 172 171 169 165 161 154 138 136 150 158 180 192 210 223 213 134 102 96 101 112 111 348 337 21 20 24 38 45 47 48 48
167 183 173 173 174 169 172 171 177 182 185 183 186 188 186 185 190 191 191 184 204 221 230 238 237 242 244 248 256 46 80 132 120 151 286 336 0 0 7 26 36 42 44
166 180 173 176 176 174 180 178 184 189 189 191 198 200 200 209 222 224 232 229 269 263 261 257 252 258 259 255 293 349 5 204 128 217 292 306 337 345 341 353 6 24 33
173 167 178 179 183 176 195 184 193 196 198 201 206 208 203 200 302 261 256 286 275 271 273 273 272 266 265 272 234 263 322 215 254 223 283 301 301 325 326 325 326 341 1
179 174 184 188 196 172 192 193 204 206 206 210 216 214 207 140 237 248 253 312 305 285 292 277 306 320 317 337 246 238 316 188 317 226 279 297 299 315 315 320 308 308 320
171 182 187 187 196 175 200 216 221 206 224 223 223 227 197 181 218 225 246 278 296 325 318 308 319 309 336 312 272 262 296 311 246 257 266 287 295 306 313 309 306 297 292
155 181 189 188 197 186 190 218 219 189 230 242 242 244 225 193 207 232 205 244 262 260 280 256 258 268 265 271 264 268 293 275 273 287 271 300 296 300 315 317 300 289 282
162 177 181 197 213 197 190 192 210 212 216 218 228 250 255 218 209 233 220 220 210 227 231 260 265 260 268 286 279 274 263 262 254 286 277 311 284 286 305 318 304 293 285
165 186 191 204 223 215 199 192 190 207 213 212 215 230 245 240 212 234 223 233 232 228 236 230 238 252 265 265 277 279 272 269 272 260 278 287 293 308 311 314 315 314 300
164 176 180 192 218 231 213 207 202 197 216 221 226 221 243 247 227 232 219 224 228 233 240 248 239 256 261 256 267 262 281 282 289 268 271 298 306 293 309 312 318 319 321
188 189 194 195 209 239 222 214 219 212 217 224 216 226 238 253 253 221 237 214 228 229 237 241 248 252 259 278 279 284 267 257 246 261 271 273 280 305 312 304 310 307 308
179 197 206 203 202 229 245 220 218 221 218 235 218 229 233 247 250 245 228 224 230 237 235 235 238 247 254 261 279 274 274 282 273 282 237 292 314 291 297 296 299 316 307
163 189 197 211 214 208 226 236 227 214 228 224 234 220 230 241 249 250 235 218 225 233 237 234 249 250 255 258 273 276 277 273 281 260 248 283 277 281 274 288 298 319 336
198 198 197 212 225 224 219 223 233 238 223 236 235 233 232 237 247 252 240 226 235 240 240 228 236 241 249 270 274 270 267 260 266 274 269 248 254 236 239 285 302 320 323
111 151 210 214 214 219 231 227 230 225 229 233 234 233 232 237 244 245 243 235 221 237 238 245 242 248 256 247 254 239 259 239 318 220 213 221 247 273 220 270 298 312 295
104 98 83 221 226 219 214 223 231 237 236 232 237 238 235 241 248 249 238 240 219 229 237 234 240 250 257 234 231 237 249 260 300 166 217 197 229 283 224 327 284 280 299
100 95 95 105 82 45 232 222 221 242 242 255 255 250 242 237 246 251 246 233 229 220 232 230 229 242 242 232 229 233 243 245 257 272 266 208 251 232 221 228 262 284 309
99 69 72 72 92 100 96 110 233 232 242 247 244 246 242 248 241 244 244 236 228 228 229 227 228 239 234 231 222 226 215 228 217 238 254 247 234 156 180 233 297 294 319
Wind_Speed_850mb
28 46 41 36 37 34 30 28 27 25 25 26 25 24 25 26 26 26 27 29 31 31 33 35 37 39 41 41 40 43 46 51 54 56 46 38 31 30 32 27 18 18 15
41 46 43 40 38 35 31 28 26 24 23 24 23 22 22 23 24 24 26 26 28 29 29 32 35 38 42 44 45 52 58 62 57 52 51 43 34 30 23 13 17 18 19
46 47 43 42 42 36 31 28 25 22 22 22 20 20 21 21 22 23 24 24 24 25 27 27 30 35 40 43 44 50 55 49 48 45 37 34 34 30 27 24 22 23 24
47 48 45 44 43 38 32 29 26 21 20 19 18 18 19 20 20 21 21 21 20 22 24 25 26 29 34 40 46 51 48 43 42 39 37 18 28 29 30 31 27 26 29
39 48 44 43 42 37 32 28 24 20 18 18 16 16 17 18 19 19 18 18 17 18 19 20 22 23 26 33 37 42 45 42 37 27 11 14 25 28 31 33 29 27 24
41 41 44 41 40 36 31 27 24 20 18 16 15 15 15 16 17 16 15 15 15 14 14 14 15 17 20 24 28 36 38 36 33 16 22 21 24 29 32 31 28 30 30
42 38 45 41 39 36 33 30 26 22 19 17 14 13 13 13 13 13 12 11 11 10 10 9 9 10 13 17 21 29 35 34 30 10 22 25 25 27 29 28 30 30 31
44 32 43 41 37 34 31 29 25 22 19 17 15 13 12 11 11 10 10 10 8 7 8 6 5 4 6 10 13 15 21 31 26 3 18 27 24 24 25 26 28 28 29
33 28 45 41 38 34 32 30 26 22 22 19 16 14 12 10 9 6 6 6 5 3 4 7 6 5 3 2 5 9 15 23 21 3 11 24 22 20 19 21 23 25 26
31 25 45 43 40 37 33 31 29 26 23 20 18 16 13 10 8 7 6 4 3 4 6 7 9 11 10 7 1 4 10 16 10 15 12 21 24 19 17 16 17 18 19
35 26 30 36 40 37 36 33 30 29 26 24 22 19 14 11 9 9 8 5 6 9 9 9 12 14 15 11 4 4 3 8 7 18 15 20 26 24 18 15 13 12 13
39 34 36 36 37 35 29 35 36 33 29 27 25 21 16 7 7 10 9 9 13 15 15 15 15 16 19 15 4 3 4 8 17 28 19 24 30 32 22 15 12 10 9
37 36 39 40 31 37 36 30 34 34 32 29 27 24 19 16 27 22 18 13 15 21 19 18 21 17 14 6 15 24 34 18 21 21 22 28 32 31 25 20 16 13 10
43 39 42 42 43 44 42 32 24 25 21 28 31 28 24 34 32 19 23 20 15 12 16 16 22 29 16 19 24 24 27 7 13 24 26 34 28 30 28 25 20 17 14
45 43 42 44 45 47 35 28 18 29 29 18 19 27 28 39 31 27 22 25 22 15 15 9 17 24 21 25 25 21 28 16 28 29 23 26 27 29 30 30 23 20 19
40 42 37 44 43 48 50 33 27 27 36 26 30 31 28 32 27 29 27 30 30 24 20 22 22 28 27 24 18 24 25 24 23 28 29 41 21 26 28 34 27 22 20
40 42 43 35 37 36 61 48 34 34 37 31 37 36 37 35 32 37 30 28 25 24 26 28 30 25 31 26 28 28 30 30 23 29 29 28 26 23 26 29 28 28 26
33 35 39 40 38 39 42 49 49 41 34 36 38 41 48 48 44 41 41 35 31 29 29 24 30 30 34 35 35 29 25 31 26 30 29 22 31 28 18 28 33 30 29
30 37 40 41 38 40 33 40 40 42 41 46 47 41 47 48 44 50 40 39 35 36 30 30 28 33 37 32 32 31 28 27 28 33 31 20 33 26 26 29 27 32 29
27 30 37 44 43 37 39 37 39 37 42 35 39 44 47 51 48 45 47 32 37 45 35 32 35 35 41 34 40 37 37 36 44 34 29 24 14 20 22 27 30 39 31
33 24 24 31 40 43 38 42 39 43 40 43 43 45 49 53 56 45 49 43 46 47 34 32 38 41 45 40 43 43 43 35 20 22 22 17 17 13 20 27 26 29 31
18 30 34 36 36 40 52 45 37 29 40 40 41 39 51 57 59 51 48 41 48 44 36 43 46 43 35 32 32 33 31 24 33 29 15 29 28 25 12 20 22 30 28
14 10 19 35 43 36 41 41 45 49 39 43 50 45 52 60 61 54 53 44 47 49 41 39 43 45 46 44 34 33 12 11 28 26 29 23 18 8 8 8 23 14 14
23 18 9 6 32 43 42 42 41 42 50 52 47 48 55 60 61 62 59 57 54 52 48 43 41 39 36 38 35 33 37 33 6 15 26 18 20 10 12 6 11 10 24
23 25 17 19 21 9 34 48 41 42 45 37 43 46 52 65 68 67 63 62 53 60 53 39 42 41 34 32 34 23 40 24 25 19 15 27 18 7 8 14 14 24 30
25 20 25 25 24 21 16 8 31 35 38 45 46 44 51 65 75 82 75 65 60 55 51 52 49 48 46 40 37 26 27 27 21 22 17 13 17 18 19 12 14 25 30
Wind_Direction_850mb
161 161 157 153 150 144 140 138 129 118 110 106 102 101 100 99 99 101 99 95 88 84 81 74 69 64 64 66 70 77 81 75 70 59 58 66 84 83 83 93 67 63 49
156 160 156 152 150 150 148 145 136 127 115 109 106 103 103 104 103 104 106 101 92 84 84 74 67 64 63 64 74 80 77 70 65 59 41 44 58 74 87 80 36 40 29
161 158 156 152 153 154 154 152 142 134 123 114 111 108 107 109 109 109 108 105 97 87 86 78 70 65 63 64 76 82 76 70 67 63 61 19 47 62 68 61 59 54 46
154 157 157 155 155 157 156 157 152 139 127 121 119 116 113 112 112 113 109 104 102 93 87 83 75 71 70 70 81 85 80 74 68 63 65 355 43 60 66 65 59 55 52
154 159 159 157 157 158 159 162 156 144 137 134 128 121 118 117 120 117 111 106 107 103 96 90 81 74 73 71 83 85 83 81 72 79 131 46 55 61 63 60 54 54 46
145 164 162 162 160 161 160 162 161 157 150 144 141 130 123 120 121 118 115 108 109 112 104 94 85 78 76 76 81 90 87 80 79 42 63 60 56 59 59 59 58 53 49
151 163 163 165 164 165 165 166 164 165 160 157 151 137 131 128 125 121 117 112 115 125 121 116 98 80 78 79 82 97 96 93 87 33 57 56 55 57 60 58 56 54 51
172 174 166 166 167 164 164 167 165 169 167 168 162 154 145 141 138 133 130 130 135 147 150 145 148 133 91 84 89 100 105 102 107 66 43 40 41 45 52 53 54 52 50
172 191 169 171 169 166 166 169 169 174 181 177 172 171 169 165 161 154 138 136 150 158 180 192 210 223 213 134 102 96 101 112 111 348 337 21 20 24 38 45 47 48 48
167 183 173 173 174 169 172 171 177 182 185 183 186 188 186 185 190 191 191 184 204 221 230 238 237 242 244 248 256 46 80 132 120 151 286 336 0 0 7 26 36 42 44
166 180 173 176 176 174 180 178 184 189 189 191 198 200 200 209 222 224 232 229 269 263 261 257 252 258 259 255 293 349 5 204 128 217 292 306 337 345 341 353 6 24 33
173 167 178 179 183 176 195 184 193 196 198 201 206 208 203 200 302 261 256 286 275 271 273 273 272 266 265 272 234 263 322 215 254 223 283 301 301 325 326 325 326 341 1
179 174 184 188 196 172 192 193 204 206 206 210 216 214 207 140 237 248 253 312 305 285 292 277 306 320 317 337 246 238 316 188 317 226 279 297 299 315 315 320 308 308 320
171 182 187 187 196 175 200 216 221 206 224 223 223 227 197 181 218 225 246 278 296 325 318 308 319 309 336 312 272 262 296 311 246 257 266 287 295 306 313 309 306 297 292
155 181 189 188 197 186 190 218 219 189 230 242 242 244 225 193 207 232 205 244 262 260 280 256 258 268 265 271 264 268 293 275 273 287 271 300 296 300 315 317 300 289 282
162 177 181 197 213 197 190 192 210 212 216 218 228 250 255 218 209 233 220 220 210 227 231 260 265 260 268 286 279 274 263 262 254 286 277 311 284 286 305 318 304 293 285
165 186 191 204 223 215 199 192 190 207 213 212 215 230 245 240 212 234 223 233 232 228 236 230 238 252 265 265 277 279 272 269 272 260 278 287 293 308 311 314 315 314 300
164 176 180 192 218 231 213 207 202 197 216 221 226 221 243 247 227 232 219 224 228 233 240 248 239 256 261 256 267 262 281 282 289 268 271 298 306 293 309 312 318 319 321
188 189 194 195 209 239 222 214 219 212 217 224 216 226 238 253 253 221 237 214 228 229 237 241 248 252 259 278 279 284 267 257 246 261 271 273 280 305 312 304 310 307 308
179 197 206 203 202 229 245 220 218 221 218 235 218 229 233 247 250 245 228 224 230 237 235 235 238 247 254 261 279 274 274 282 273 282 237 292 314 291 297 296 299 316 307
163 189 197 211 214 208 226 236 227 214 228 224 234 220 230 241 249 250 235 218 225 233 237 234 249 250 255 258 273 276 277 273 281 260 248 283 277 281 274 288 298 319 336
198 198 197 212 225 224 219 223 233 238 223 236 235 233 232 237 247 252 240 226 235 240 240 228 236 241 249 270 274 270 267 260 266 274 269 248 254 236 239 285 302 320 323
111 151 210 214 214 219 231 227 230 225 229 233 234 233 232 237 244 245 243 235 221 237 238 245 242 248 256 247 254 239 259 239 318 220 213 221 247 273 220 270 298 312 295
104 98 83 221 226 219 214 223 231 237 236 232 237 238 235 241 248 249 238 240 219 229 237 234 240 250 257 234 231 237 249 260 300 166 217 197 229 283 224 327 284 280 299
100 95 95 105 82 45 232 222 221 242 242 255 255 250 242 237 246 251 246 233 229 220 232 230 229 242 242 232 229 233 243 245 257 272 266 208 251 232 221 228 262 284 309
99 69 72 72 92 100 96 110 233 232 242 247 244 246 242 248 241 244 244 236 228 228 229 227 228 239 234 231 222 226 215 228 217 238 254 247 234 156 180 233 297 294 319